Location: Barcelona
(41.3830°N, 2.1830°E)
Time: 11:53:08
(UTC+02:00)

ISS - Pass Details

Date: 26 May 2020
Orbit: 417 x 419 km, 51.6° (Epoch: 31 May)

Event Time Altitude Azimuth Distance (km) Brightness Sun altitude
Rises 23:07:48 0° 309° (NW) 2,367 1.7 -17.1°
Reaches altitude 10° 23:10:16 10° 327° (NNW) 1,502 0.4 -17.4°
Maximum altitude 23:12:53 21° 17° (NNE) 1,018 -1.4 -17.7°
Enters shadow 23:15:09 12° 64° (ENE) 1,397 -1.2 -17.9°
